Weather History for Osceola Municipal, IA

Change the Weather History Date:

Wednesday, February 13, 2013

  Actual Average (KLWD) Record (KLWD)
Temperature  
Mean Temperature 36 °F 28 °F  
Max Temperature 49 °F 37 °F 61 °F (1967)
Min Temperature 24 °F 18 °F -3 °F (1986)
Degree Days  
Heating Degree Days 28 37  
Month to date heating degree days 504  
Since 1 July heating degree days 4196  
Cooling Degree Days 0 0  
Month to date cooling degree days 0  
Year to date cooling degree days 0  
Moisture  
Dew Point 25 °F    
Average Humidity 67    
Maximum Humidity 88    
Minimum Humidity 38    
Precipitation  
Precipitation 0.00 in 0.05 in 0.95 in (1949)
Month to date precipitation 0.63  
Sea Level Pressure  
Sea Level Pressure 29.78 in    
Wind  
Wind Speed 8 mph (WSW)    
Max Wind Speed 15 mph    
Max Gust Speed 20 mph    
Visibility 9 miles    
Events      
T = Trace of Precipitation, MM = Missing Value Source: NWS Daily Summary

Daily Weather History Graph

Daily Weather History Graph

Search for Another Location

Airport:

Trip Planner

Search our weather history database for the weather conditions in past years. The results will help you decide how hot, cold, wet, or windy it might be!

Date:

Astronomy

Feb. 13, 2013 Rise Set
Actual Time 7:11 AM CST 5:47 PM CST
Civil Twilight 6:43 AM CST 6:15 PM CST
Nautical Twilight 6:10 AM CST 6:47 PM CST
Astronomical Twilight 5:38 AM CST 7:19 PM CST
Moon 8:38 AM CST (2/13) 9:53 PM CST (2/13)
Length of Visible Light 11h 32m
Length of Day
10h 35m
Waxing Crescent, 14% of the Moon is Illuminated
Feb 13
Waxing Crescent
Feb 17
First Quarter
Feb 25
Full
Mar 4
Last Quarter
Mar 11
New

Hourly Weather History & Observations

Time (CST) Temp. Windchill Dew Point Humidity Pressure Visibility Wind Dir Wind Speed Gust Speed Precip Events Conditions
12:15 AM 28.4 °F 21.2 °F 23.4 °F 81% 29.87 in 10.0 mi SW 6.9 mph - N/A   Clear
12:35 AM 28.2 °F 22.0 °F 23.2 °F 81% 29.87 in 10.0 mi SW 5.8 mph - N/A   Clear
12:55 AM 28.8 °F 21.7 °F 23.2 °F 80% 29.87 in 10.0 mi WSW 6.9 mph - N/A   Clear
1:15 AM 28.2 °F 21.0 °F 23.0 °F 81% 29.86 in 10.0 mi West 6.9 mph - N/A   Clear
1:35 AM 27.3 °F 19.1 °F 22.8 °F 83% 29.86 in 10.0 mi West 8.1 mph - N/A   Clear
1:55 AM 27.0 °F 19.5 °F 22.8 °F 84% 29.85 in 10.0 mi West 6.9 mph - N/A   Clear
2:15 AM 26.6 °F 19.1 °F 22.6 °F 85% 29.85 in 10.0 mi West 6.9 mph - N/A   Clear
2:35 AM 26.6 °F 20.0 °F 22.6 °F 85% 29.85 in 10.0 mi WSW 5.8 mph - N/A   Clear
2:55 AM 26.2 °F 19.6 °F 22.1 °F 84% 29.85 in 10.0 mi West 5.8 mph - N/A   Clear
3:15 AM 26.6 °F 19.1 °F 22.1 °F 83% 29.84 in 10.0 mi West 6.9 mph - N/A   Clear
3:35 AM 27.1 °F 19.7 °F 22.6 °F 83% 29.84 in 10.0 mi WNW 6.9 mph - N/A   Clear
3:55 AM 27.0 °F 20.5 °F 22.1 °F 82% 29.83 in 10.0 mi West 5.8 mph - N/A   Clear
4:15 AM 26.2 °F 18.6 °F 22.1 °F 84% 29.82 in 10.0 mi West 6.9 mph - N/A   Clear
4:35 AM 26.2 °F 18.6 °F 22.1 °F 84% 29.81 in 10.0 mi West 6.9 mph - N/A   Clear
4:55 AM 26.6 °F 20.0 °F 22.1 °F 83% 29.82 in 10.0 mi WNW 5.8 mph - N/A   Clear
5:15 AM 26.4 °F 20.9 °F 22.1 °F 84% 29.82 in 10.0 mi WNW 4.6 mph - N/A   Clear
5:35 AM 25.7 °F 18.0 °F 21.9 °F 86% 29.82 in 10.0 mi West 6.9 mph - N/A   Clear
5:55 AM 25.7 °F 18.0 °F 21.9 °F 86% 29.81 in 10.0 mi West 6.9 mph - N/A   Clear
6:15 AM 25.3 °F 17.6 °F 21.7 °F 86% 29.81 in 10.0 mi West 6.9 mph - N/A   Clear
6:35 AM 24.8 °F 17.9 °F 21.4 °F 87% 29.81 in 10.0 mi West 5.8 mph - N/A   Clear
6:55 AM 24.6 °F 16.7 °F 21.2 °F 87% 29.81 in 10.0 mi West 6.9 mph - N/A   Clear
7:15 AM 24.8 °F 16.9 °F 21.6 °F 87% 29.82 in 10.0 mi West 6.9 mph - N/A   Clear
7:35 AM 24.8 °F 16.9 °F 21.7 °F 88% 29.81 in 10.0 mi West 6.9 mph - N/A   Clear
7:55 AM 26.4 °F 22.4 °F 22.8 °F 86% 29.81 in 10.0 mi WSW 3.5 mph - N/A   Clear
8:15 AM 28.0 °F 20.8 °F 23.9 °F 84% 29.81 in 10.0 mi West 6.9 mph - N/A   Clear
8:35 AM 29.5 °F 22.5 °F 24.6 °F 82% 29.81 in 10.0 mi West 6.9 mph - N/A   Clear
8:55 AM 31.3 °F 23.3 °F 25.7 °F 80% 29.82 in 10.0 mi West 9.2 mph - N/A   Clear
9:15 AM 32.7 °F 25.0 °F 26.4 °F 78% 29.82 in 10.0 mi West 9.2 mph - N/A   Clear
9:35 AM 34.5 °F 26.2 °F 27.3 °F 75% 29.83 in 10.0 mi West 11.5 mph - N/A   Clear
9:55 AM 35.8 °F 28.3 °F 27.1 °F 71% 29.82 in 10.0 mi West 10.4 mph - N/A   Clear
10:15 AM 37.0 °F 31.0 °F 26.6 °F 66% 29.82 in 10.0 mi West 8.1 mph - N/A   Clear
10:35 AM 38.7 °F 31.4 °F 27.5 °F 64% 29.83 in 10.0 mi WNW 11.5 mph - N/A   Clear
10:55 AM 39.4 °F 33.2 °F 27.1 °F 62% 29.82 in 10.0 mi West 9.2 mph - N/A   Clear
11:15 AM 41.0 °F 35.8 °F 28.0 °F 60% 29.82 in 10.0 mi West 8.1 mph - N/A   Clear
11:35 AM 41.4 °F 36.8 °F 28.2 °F 60% 29.82 in 10.0 mi West 6.9 mph - N/A   Clear
11:55 AM 42.1 °F 37.1 °F 27.9 °F 57% 29.81 in 10.0 mi West 8.1 mph - N/A   Clear
12:15 PM 44.6 °F 40.7 °F 28.6 °F 53% 29.80 in 10.0 mi SW 6.9 mph - N/A   Clear
12:35 PM 45.5 °F 40.8 °F 27.3 °F 49% 29.79 in 10.0 mi West 9.2 mph - N/A   Clear
12:55 PM 46.6 °F - 26.1 °F 45% 29.78 in 7.0 mi West 10.4 mph - N/A   Clear
1:15 PM 47.3 °F - 27.3 °F 46% 29.77 in 10.0 mi WSW 11.5 mph - N/A   Clear
1:35 PM 47.7 °F - 25.3 °F 42% 29.76 in 10.0 mi WSW 10.4 mph - N/A   Clear
1:55 PM 48.2 °F - 25.9 °F 42% 29.76 in 7.0 mi SW 11.5 mph 19.6 mph N/A   Clear
2:15 PM 48.6 °F - 24.4 °F 39% 29.76 in 10.0 mi SW 13.8 mph - N/A   Clear
2:35 PM 49.1 °F - 24.8 °F 39% 29.75 in 7.0 mi WSW 12.7 mph 17.3 mph N/A   Clear
2:55 PM 49.1 °F - 24.6 °F 38% 29.75 in 7.0 mi WSW 15.0 mph 18.4 mph N/A   Clear
3:15 PM 49.3 °F - 25.0 °F 39% 29.75 in 7.0 mi WSW 13.8 mph - N/A   Clear
3:35 PM 49.1 °F - 25.7 °F 40% 29.75 in 10.0 mi WSW 10.4 mph - N/A   Clear
3:55 PM 48.7 °F - 25.5 °F 40% 29.75 in 7.0 mi WSW 10.4 mph - N/A   Clear
4:15 PM 48.6 °F - 25.9 °F 41% 29.74 in 7.0 mi SW 12.7 mph - N/A   Clear
4:35 PM 47.8 °F - 26.4 °F 43% 29.74 in 10.0 mi WSW 10.4 mph - N/A   Clear
4:55 PM 47.3 °F - 26.1 °F 44% 29.74 in 10.0 mi WSW 11.5 mph - N/A   Clear
5:15 PM 45.9 °F 41.7 °F 26.8 °F 47% 29.74 in 5.0 mi SW 8.1 mph - N/A   Haze
5:35 PM 42.3 °F 37.9 °F 26.6 °F 54% 29.73 in 7.0 mi SW 6.9 mph - N/A   Clear
5:55 PM 39.6 °F 34.7 °F 26.2 °F 59% 29.73 in 7.0 mi SSW 6.9 mph - N/A   Clear
6:15 PM 38.3 °F 33.9 °F 26.6 °F 63% 29.73 in 10.0 mi SW 5.8 mph - N/A   Scattered Clouds
6:35 PM 40.5 °F 36.5 °F 25.7 °F 56% 29.74 in 10.0 mi SW 5.8 mph - N/A   Mostly Cloudy
6:55 PM 38.5 °F 34.1 °F 26.1 °F 61% 29.74 in 10.0 mi SW 5.8 mph - N/A   Mostly Cloudy
7:15 PM 37.4 °F 32.8 °F 27.1 °F 66% 29.74 in 10.0 mi SSW 5.8 mph - N/A   Overcast
7:35 PM 37.6 °F 31.6 °F 27.5 °F 67% 29.74 in 10.0 mi SSW 8.1 mph - N/A   Overcast
7:55 PM 39.0 °F 33.4 °F 27.0 °F 62% 29.72 in 7.0 mi South 8.1 mph - N/A   Overcast
8:15 PM 38.3 °F 32.5 °F 27.9 °F 66% 29.72 in 10.0 mi SSW 8.1 mph - N/A   Overcast
8:35 PM 38.3 °F 31.9 °F 27.5 °F 65% 29.71 in 10.0 mi SSW 9.2 mph - N/A   Scattered Clouds
8:55 PM 39.7 °F 33.7 °F 27.1 °F 61% 29.71 in 10.0 mi SSW 9.2 mph - N/A   Scattered Clouds
9:15 PM 39.4 °F 32.7 °F 27.1 °F 62% 29.71 in 10.0 mi SSW 10.4 mph - N/A   Scattered Clouds
9:35 PM 39.2 °F 33.0 °F 26.6 °F 61% 29.71 in 7.0 mi SSW 9.2 mph - N/A   Clear
9:55 PM 38.3 °F 31.9 °F 27.0 °F 64% 29.70 in 10.0 mi SW 9.2 mph - N/A   Clear
10:15 PM 37.4 °F 30.8 °F 27.3 °F 67% 29.71 in 10.0 mi SW 9.2 mph - N/A   Clear
10:35 PM 36.5 °F 29.7 °F 27.1 °F 69% 29.71 in 10.0 mi SW 9.2 mph - N/A   Clear
10:55 PM 37.6 °F 31.0 °F 27.1 °F 66% 29.71 in 10.0 mi WSW 9.2 mph - N/A   Clear
11:15 PM 37.8 °F 31.3 °F 27.1 °F 66% 29.71 in 10.0 mi WSW 9.2 mph - N/A   Clear
11:35 PM 37.4 °F 30.8 °F 27.3 °F 67% 29.71 in 10.0 mi WSW 9.2 mph - N/A   Clear
11:55 PM 36.9 °F 30.7 °F 27.5 °F 69% 29.72 in 7.0 mi WSW 8.1 mph - N/A   Scattered Clouds